When you browse on this site, cookies collect data to enhance your experience and personalize the content and advertising you see.
Visit our Privacy Policy to learn more. By continuing to use the site, you agree to this use of cookies and data.
  • Em Portugal
  • Lista de países
  • Para 7 dias
  • Temperatura da água
  • Mapas de satélite
  • Mapa do tempo
  • Widgets de tempo
  • user-avatar
    Iniciar Sessão

    Previsão horária em Bandar Abbas

    Hoje, 26 Março, Terça-feira

    Tempo Temperatura Precipitação Vento Pressão Humidade
    00:00 +26°C° 0 mm 2 m/s 759 mmHg 66%
    01:00 +26°C° 0 mm 3 m/s 759 mmHg 66%
    02:00 +26°C° 0 mm 2 m/s 759 mmHg 72%
    03:00 +25°C° 0 mm 2 m/s 759 mmHg 77%
    04:00 +25°C° 0 mm 1 m/s 759 mmHg 79%
    05:00 +25°C° 0 mm 1 m/s 759 mmHg 76%
    06:00 +25°C° 0 mm 1 m/s 760 mmHg 74%
    07:00 +26°C° 0 mm 1 m/s 760 mmHg 72%
    08:00 +27°C° 0 mm 1 m/s 761 mmHg 65%
    09:00 +28°C° 0 mm 1 m/s 761 mmHg 59%
    10:00 +29°C° 0 mm 1 m/s 761 mmHg 53%
    11:00 +29°C° 0 mm 2 m/s 761 mmHg 53%
    12:00 +30°C° 0 mm 3 m/s 760 mmHg 52%
    13:00 +30°C° 0 mm 3 m/s 760 mmHg 51%
    14:00 +30°C° 0 mm 3 m/s 760 mmHg 49%
    15:00 +31°C° 0 mm 2 m/s 760 mmHg 47%
    16:00 +31°C° 0 mm 2 m/s 760 mmHg 45%
    17:00 +30°C° 0 mm 2 m/s 760 mmHg 47%
    18:00 +30°C° 0 mm 2 m/s 760 mmHg 49%
    19:00 +29°C° 0 mm 2 m/s 760 mmHg 51%
    20:00 +29°C° 0 mm 2 m/s 760 mmHg 53%
    21:00 +29°C° 0 mm 1 m/s 760 mmHg 55%
    22:00 +26°C° 0 mm 0 m/s 760 mmHg 57%
    23:00 +28°C° 0 mm 1 m/s 760 mmHg 56%

    Amanhã, 27 Março, Quarta-feira

    Tempo Temperatura Precipitação Vento Pressão Humidade
    00:00 +28°C° 0 mm 1 m/s 760 mmHg 54%
    01:00 +27°C° 0 mm 2 m/s 760 mmHg 53%
    02:00 +27°C° 0.1 mm 2 m/s 760 mmHg 56%
    03:00 +27°C° 0.1 mm 2 m/s 760 mmHg 59%
    04:00 +26°C° 0.1 mm 2 m/s 760 mmHg 62%
    05:00 +26°C° 0 mm 1 m/s 760 mmHg 63%
    06:00 +26°C° 0 mm 1 m/s 761 mmHg 64%
    07:00 +24°C° 0 mm 0 m/s 761 mmHg 66%
    08:00 +27°C° 0 mm 1 m/s 762 mmHg 60%
    09:00 +28°C° 0 mm 1 m/s 762 mmHg 54%
    10:00 +29°C° 0 mm 1 m/s 762 mmHg 47%
    11:00 +29°C° 0 mm 2 m/s 762 mmHg 48%
    12:00 +30°C° 0 mm 3 m/s 762 mmHg 48%
    13:00 +30°C° 0 mm 3 m/s 761 mmHg 48%
    14:00 +30°C° 0 mm 4 m/s 761 mmHg 50%
    15:00 +30°C° 0 mm 4 m/s 760 mmHg 53%
    16:00 +30°C° 0 mm 4 m/s 760 mmHg 55%
    17:00 +29°C° 0 mm 4 m/s 760 mmHg 58%
    18:00 +28°C° 0 mm 3 m/s 760 mmHg 61%
    19:00 +27°C° 0 mm 2 m/s 760 mmHg 64%
    20:00 +27°C° 0 mm 2 m/s 760 mmHg 65%
    21:00 +27°C° 0 mm 2 m/s 761 mmHg 66%
    22:00 +27°C° 0 mm 2 m/s 761 mmHg 67%
    23:00 +26°C° 0 mm 1 m/s 761 mmHg 68%

    Depois de amanhã, 28 Março, Quinta-feira

    Tempo Temperatura Precipitação Vento Pressão Humidade
    00:00 +26°C° 0 mm 1 m/s 761 mmHg 69%
    01:00 +26°C° 0 mm 1 m/s 761 mmHg 70%
    02:00 +25°C° 0 mm 1 m/s 761 mmHg 70%
    03:00 +25°C° 0 mm 1 m/s 760 mmHg 69%
    04:00 +25°C° 0 mm 1 m/s 760 mmHg 69%
    05:00 +23°C° 0 mm 0 m/s 760 mmHg 68%
    06:00 +23°C° 0 mm 0 m/s 760 mmHg 67%
    07:00 +23°C° 0 mm 0 m/s 761 mmHg 66%
    08:00 +24°C° 0 mm 0 m/s 761 mmHg 61%
    09:00 +27°C° 0 mm 1 m/s 761 mmHg 55%
    10:00 +28°C° 0 mm 1 m/s 762 mmHg 50%
    11:00 +29°C° 0 mm 1 m/s 761 mmHg 45%
    12:00 +30°C° 0 mm 1 m/s 761 mmHg 40%
    13:00 +31°C° 0 mm 1 m/s 760 mmHg 36%
    14:00 +31°C° 0 mm 2 m/s 760 mmHg 35%
    15:00 +31°C° 0 mm 3 m/s 759 mmHg 34%
    16:00 +33°C° 0 mm 4 m/s 759 mmHg 34%
    17:00 +32°C° 0 mm 4 m/s 759 mmHg 35%
    18:00 +30°C° 0 mm 4 m/s 759 mmHg 37%
    19:00 +29°C° 0 mm 3 m/s 759 mmHg 39%
    20:00 +28°C° 0 mm 3 m/s 759 mmHg 41%
    21:00 +28°C° 0 mm 2 m/s 760 mmHg 43%
    22:00 +27°C° 0 mm 1 m/s 760 mmHg 45%
    23:00 +27°C° 0 mm 1 m/s 760 mmHg 46%

    29 Março, Sexta-feira

    Tempo Temperatura Precipitação Vento Pressão Humidade
    00:00 +26°C° 0 mm 1 m/s 760 mmHg 48%
    01:00 +26°C° 0 mm 1 m/s 759 mmHg 49%
    02:00 +25°C° 0 mm 1 m/s 759 mmHg 50%
    03:00 +25°C° 0 mm 1 m/s 759 mmHg 52%
    04:00 +24°C° 0 mm 1 m/s 759 mmHg 53%
    05:00 +24°C° 0 mm 1 m/s 759 mmHg 53%
    06:00 +24°C° 0 mm 1 m/s 759 mmHg 54%
    07:00 +24°C° 0 mm 1 m/s 760 mmHg 54%
    08:00 +26°C° 0 mm 1 m/s 760 mmHg 48%
    09:00 +27°C° 0 mm 1 m/s 760 mmHg 41%
    10:00 +28°C° 0 mm 1 m/s 761 mmHg 35%
    11:00 +29°C° 0 mm 1 m/s 760 mmHg 33%
    12:00 +30°C° 0 mm 2 m/s 760 mmHg 31%
    13:00 +31°C° 0 mm 2 m/s 759 mmHg 29%
    14:00 +31°C° 0 mm 3 m/s 759 mmHg 29%
    15:00 +31°C° 0 mm 3 m/s 758 mmHg 29%
    16:00 +31°C° 0 mm 3 m/s 758 mmHg 29%
    17:00 +31°C° 0 mm 3 m/s 758 mmHg 32%
    18:00 +30°C° 0 mm 3 m/s 758 mmHg 35%
    19:00 +29°C° 0 mm 3 m/s 758 mmHg 38%
    20:00 +28°C° 0 mm 3 m/s 759 mmHg 41%
    21:00 +28°C° 0 mm 2 m/s 759 mmHg 44%
    22:00 +27°C° 0 mm 1 m/s 760 mmHg 48%
    23:00 +27°C° 0 mm 1 m/s 760 mmHg 47%

    30 Março, Sábado

    Tempo Temperatura Precipitação Vento Pressão Humidade
    00:00 +26°C° 0 mm 1 m/s 759 mmHg 46%
    01:00 +26°C° 0 mm 1 m/s 759 mmHg 45%
    02:00 +25°C° 0 mm 1 m/s 759 mmHg 48%
    03:00 +25°C° 0 mm 1 m/s 759 mmHg 50%
    04:00 +24°C° 0 mm 1 m/s 759 mmHg 52%
    05:00 +22°C° 0 mm 0 m/s 759 mmHg 53%
    06:00 +22°C° 0 mm 0 m/s 759 mmHg 53%
    07:00 +22°C° 0 mm 0 m/s 760 mmHg 53%
    08:00 +24°C° 0 mm 0 m/s 760 mmHg 46%
    09:00 +25°C° 0 mm 0 m/s 760 mmHg 39%
    10:00 +27°C° 0 mm 0 m/s 760 mmHg 31%
    11:00 +30°C° 0 mm 1 m/s 760 mmHg 29%
    12:00 +31°C° 0 mm 1 m/s 759 mmHg 27%
    13:00 +32°C° 0 mm 2 m/s 759 mmHg 24%
    14:00 +32°C° 0 mm 2 m/s 758 mmHg 25%
    15:00 +33°C° 0 mm 3 m/s 758 mmHg 25%
    16:00 +33°C° 0 mm 4 m/s 757 mmHg 25%
    17:00 +33°C° 0 mm 3 m/s 758 mmHg 28%
    18:00 +31°C° 0 mm 2 m/s 758 mmHg 31%
    19:00 +30°C° 0 mm 2 m/s 758 mmHg 34%
    20:00 +30°C° 0 mm 1 m/s 759 mmHg 36%
    21:00 +29°C° 0 mm 1 m/s 759 mmHg 39%
    22:00 +27°C° 0 mm 0 m/s 759 mmHg 41%
    23:00 +26°C° 0 mm 0 m/s 759 mmHg 42%

    31 Março, Domingo

    Tempo Temperatura Precipitação Vento Pressão Humidade
    00:00 +26°C° 0 mm 0 m/s 759 mmHg 42%
    01:00 +27°C° 0 mm 1 m/s 759 mmHg 43%
    02:00 +27°C° 0 mm 1 m/s 758 mmHg 42%
    03:00 +27°C° 0 mm 1 m/s 758 mmHg 40%
    04:00 +27°C° 0 mm 2 m/s 758 mmHg 39%
    05:00 +27°C° 0 mm 1 m/s 758 mmHg 39%
    06:00 +27°C° 0 mm 1 m/s 758 mmHg 40%
    07:00 +25°C° 0 mm 0 m/s 759 mmHg 41%
    08:00 +27°C° 0 mm 0 m/s 759 mmHg 34%
    09:00 +31°C° 0 mm 1 m/s 759 mmHg 26%
    10:00 +33°C° 0 mm 1 m/s 760 mmHg 19%
    11:00 +34°C° 0 mm 1 m/s 759 mmHg 17%
    12:00 +35°C° 0 mm 1 m/s 759 mmHg 15%
    13:00 +36°C° 0 mm 1 m/s 759 mmHg 14%
    14:00 +36°C° 0 mm 1 m/s 758 mmHg 14%
    15:00 +37°C° 0 mm 2 m/s 758 mmHg 15%
    16:00 +37°C° 0 mm 3 m/s 758 mmHg 16%
    17:00 +36°C° 0 mm 2 m/s 758 mmHg 19%
    18:00 +35°C° 0 mm 2 m/s 758 mmHg 22%
    19:00 +33°C° 0 mm 1 m/s 759 mmHg 25%
    20:00 +32°C° 0 mm 1 m/s 759 mmHg 27%
    21:00 +32°C° 0 mm 1 m/s 759 mmHg 30%
    22:00 +29°C° 0 mm 0 m/s 759 mmHg 32%
    23:00 +29°C° 0 mm 0 m/s 759 mmHg 32%
    Mostrar mais